Voltar ao catálogo

FENGYUN 1C DEB

AtivoSSO
NORAD 38116·DEBRIS·🇨🇳 China

Lançado May 10, 1999 de Taiyuan Satellite Launch Center

Loading…

Próximas Passagens (próximas 24 horas)

TLE

AtualizadoSource: Space-Track

Época: Sep 14, 2026, 08:41 UTC

1 38116U 99025EPM 26257.36223590  .00000351  00000-0  18937-3 0  9996
2 38116  98.6863 295.2093 0072009  76.9100 349.6647 14.17487217683897

Acompanhe FENGYUN 1C DEB em tempo real com AllMySat

Download on the App Store